Погода в Салаире

Россия / Кемеровская область (Кузбасс)     54˚14′06″N   85˚48′10″E
темп.,
°C
ветер,
м/с
пор.,
м/с
влажн.,
%
обл.,
%
осадки,
мм/ч
давл.,
гПа
погр.,
м
17 января, вс
вс1701:00−11˚ююз247498 0.0 102480
04:00−11˚ю236983 0.0 102024
07:00−10˚ююз236991 0.0 101746
10:00−10˚ююз51268100 0.0 1013228
13:00−9˚юз81867100 0.0 1013607
16:00−8˚юз81682100 0.0 1015788
19:00−8˚юз81689100 0.3 1018642
22:00−10˚юз81591100 0.1 1020450
18 января, пн
пн1801:00−11˚юз61393100 0.2 1020376
04:00−11˚ююз7139399 0.0 1018331
07:00−11˚юз81886100 0.1 1014516
10:00−11˚юз7177914 0.0 1012589
13:00−9˚юз7149051 0.4 1011702
16:00−8˚юз71489100 0.2 10111083
19:00−11˚зюз61291100 0.4 1015787
22:00−14˚зюз51292100 0.1 1018563
19 января, вт
вт1901:00−17˚зюз51095100 0.2 1021369
04:00−21˚юз4999100 0.0 1024227
07:00−23˚юз499899 0.0 1025184
10:00−23˚юз4109699 0.0 1026197
13:00−19˚юз479399 0.0 1026237
16:00−18˚юз3792100 0.0 1024242
19:00−22˚юз359483 0.0 102594
22:00−22˚юз34944 0.0 102480
20 января, ср
ср2001:00−23˚юз229514 0.0 102423
04:00−24˚зюз119424 0.0 102520
07:00−24˚с129460 0.0 102620
10:00−27˚св12100100 0.0 102828
13:00−23˚всв229699 0.0 1028131
16:00−22˚св229887 0.0 102790
19:00−27˚всв129977 0.0 102720
22:00−23˚всв129498 0.0 102525
21 января, чт
чт2101:00−19˚в128999 0.0 102248
04:00−15˚в1297100 0.9 101984
07:00−9˚ю21197100 2.4 1017425
10:00−9˚зюз61291100 0.5 1018609
13:00−11˚зюз61191100 0.6 1019491
16:00−12˚юз4894100 0.0 1019407
19:00−14˚ююз2397100 0.1 1018102
22:00−13˚ю1295100 0.0 101541